Weather in Leninaul

Russia / Republic of Dagestan     43°05′42″N   46°34′25″E
temp.,
°C
wind,
m/s
gust,
m/s
humid.,
%
clouds,
%
prec.,
mm/h
press.,
hPa
HPBL,
m
15 april, thu
thu1500:00+4sw33852 0.0 101845
03:00+3ssw358861 0.0 101990
06:00+4sw337942 0.0 101963
09:00+10wnw34570 0.0 1017800
12:00+14nnw44444 0.0 10161564
15:00+13n334797 0.0 10161610
18:00+10nne116399 0.0 101784
21:00+8s2170100 0.0 101812
16 april, fri
fri1600:00+7s227197 0.0 101812
03:00+7s22745 0.0 101814
06:00+7sse227255 0.0 101916
09:00+13ne23538 0.0 10181045
12:00+15ne435044 0.4 10161372
15:00+15ne335252 1.7 10161195
18:00+12ene127029 1.9 101632
21:00+10s22725 2.1 101814
17 april, sat
sat1700:00+9sw22778 0.3 101921
03:00+8s22747 0.3 101818
06:00+8sse2173100 0.0 101820
09:00+12nnw2265100 0.0 1018702
12:00+11nw4476100 0.1 1020910
15:00+9nw2389100 0.3 1021572
18:00+8nnw1196100 0.9 1022212
21:00+7nw1196100 1.3 1023138
18 april, sun
sun1800:00+7nne1199100 0.8 1022166
03:00+7ne2299100 0.9 1021168
06:00+7ene1298100 0.1 1020216
09:00+9e1289100 0.1 1018366
12:00+12nne2176100 0.0 1016551
15:00+12n3278100 0.1 1015670
18:00+11nnw1287100 0.9 1015100
21:00+8w129899 1.1 1018120
19 april, mon
mon1900:00+8wsw129897 1.6 101866
03:00+8nw2299100 1.9 1018147
06:00+7nw2498100 0.6 1020403
09:00+7wnw2296100 1.6 1021238
12:00+7w2395100 0.1 1021278
15:00+10nnw347923 0.1 1020568
18:00+8nw229072 0.0 1021179
21:00+7sw229459 0.0 102382